Regional Weather Roundup
Issued by NWS

Home | Current Version | Previous Version | Graphics & Text | Print | Product List | Glossary On
Versions: 1 2 3 4 5 6 7 8 9 10 11 12 13 14 15 16 17 18 19 20 21 22 23 24 25 26 27 28 29 30 31 32 33 34 35 36 37 38 39 40 41 42 43 44 45 46 47 48 49 50
000
ASUS45 KCYS 230110
RWRWY

WYOMING REGIONAL WEATHER ROUNDUP
NATIONAL WEATHER SERVICE CHEYENNE WY
700 PM MDT FRI MAY 22 2015

NOTE:  "FAIR" INDICATES FEW OR NO CLOUDS BELOW 12,000 FEET
WITH NO SIGNIFICANT WEATHER AND/OR OBSTRUCTIONS TO VISIBILITY.

WYZ001-230200-
YELLOWSTONE NATIONAL PARK

CITY           SKY/WX    TMP DP  RH WIND       PRES   REMARKS
LK YELLOWSTONE   N/A     51  37  58 VRB3      29.99S
W YELLOWSTONE  NOT AVBL

$$
WYZ002>013-054>058-071-098>099-230200-
NORTHERN WYOMING

CITY           SKY/WX    TMP DP  RH WIND       PRES   REMARKS
JACKSON        CLOUDY    52  39  62 S7G16     29.93R
CODY           CLOUDY    50  46  87 NW3       29.95R
GREYBULL       PTSUNNY   62  47  57 N3        29.89R
WORLAND        PTSUNNY   54  49  83 N3        29.89S
SHERIDAN       CLOUDY    56  45  66 SE21G32   29.92F
BUFFALO          N/A     50  46  86 SE14      30.00S
GILLETTE       CLOUDY    52  42  69 SE21      30.00S
HULETT         CLOUDY    55  43  62 E10       30.03S
NEWCASTLE      CLOUDY    48  41  76 S12       30.06R

$$
WYZ014>020-022>026-101>103-230200-
CENTRAL WYOMING

CITY           SKY/WX    TMP DP  RH WIND       PRES   REMARKS
BIG PINEY      LGT RAIN  46  41  82 SW6       29.98R
PINEDALE       CLOUDY    45  41  87 S6        29.98S
DUBOIS         MOCLDY    48  36  61 SE9       29.96S
LANDER         RAIN      49  45  86 S5        29.90S FOG
RIVERTON         N/A     50  47  89 MISG      29.92F
CASPER         CLOUDY    49  45  86 E15       29.95S
DOUGLAS        CLOUDY    49  43  80 SE17      30.00S

$$
WYZ021-027>030-104>119-230200-
SOUTHERN WYOMING

CITY           SKY/WX    TMP DP  RH WIND       PRES   REMARKS
EVANSTON       LGT RAIN  44  40  85 NE6       29.98S
KEMMERER       RAIN      41  37  87 CALM      29.99S
FORT BRIDGER   MOCLDY    43  43 100 NW10      30.01R
ROCK SPRINGS   CLOUDY    50  38  63 N3        29.95R
DIXON          FAIR      49  40  71 E10       30.00F
RAWLINS        LGT RAIN  47  39  74 SW22G32   29.97R
SARATOGA       CLOUDY    46  41  81 W6        30.00R
LARAMIE        LGT RAIN  45  40  82 SE20      29.99S
CHEYENNE       CLOUDY    47  42  83 SE9       30.02R
TORRINGTON     LGT RAIN  47  45  93 E17       30.02R
PINE BLUFFS    CLOUDY    46  45  93 SE15      30.03R

$$



USA.gov is the U.S. government's official web portal to all federal, state and local government web resources and services.